Location: S�tio Afonso Gruber
(26.1760°S, 49.5250°W)
Time: 14:03:46
(UTC+00:00)

AO-7 - Visible Passes

Search period start: 06 May 2021 00:00
Search period end: 16 May 2021 00:00
Orbit: 1439 x 1459 km, 101.9° (Epoch: 05 May)

Date Brightness Start Highest point End Pass type
(mag) Time Alt. Az. Time Alt. Az. Time Alt. Az.
06 May ? 07:14:17 10° N 07:17:17 24° NNW 07:17:17 24° NNW visible
06 May ? 21:20:55 10° SSW 21:24:22 13° WSW 21:27:48 10° W visible
07 May ? 06:14:04 10° NNE 06:16:15 21° NNE 06:16:15 21° NNE visible
07 May ? 08:10:05 10° NW 08:11:11 13° NW 08:11:11 13° NW visible
08 May ? 07:07:06 10° N 07:10:10 25° N 07:10:10 25° N visible
08 May ? 21:13:12 10° SSW 21:17:29 15° WSW 21:21:47 10° W visible
09 May ? 06:07:10 10° NNE 06:09:09 19° NE 06:09:09 19° NE visible
09 May ? 08:02:25 10° NW 08:04:04 15° NW 08:04:04 15° NW visible
10 May ? 06:59:56 10° N 07:03:03 26° N 07:03:03 26° N visible
10 May ? 21:05:38 10° SSW 21:10:36 17° WSW 21:15:33 10° W visible
11 May ? 06:00:18 10° NE 06:02:03 18° NE 06:02:03 18° NE visible
11 May ? 07:54:51 10° NNW 07:56:57 16° NW 07:56:57 16° NW visible
12 May ? 06:52:49 10° N 06:55:56 26° N 06:55:56 26° N visible
12 May ? 20:58:11 10° SSW 21:03:43 20° WSW 21:09:13 10° WNW visible
13 May ? 05:53:28 10° NE 05:54:55 16° NE 05:54:55 16° NE visible
13 May ? 07:47:22 10° NNW 07:49:50 18° NW 07:49:50 18° NW visible
14 May ? 06:45:44 10° N 06:48:48 26° N 06:48:48 26° N visible
14 May ? 20:50:49 10° SSW 20:56:48 22° WSW 21:02:47 10° WNW visible
15 May ? 05:46:40 10° NE 05:47:47 15° NE 05:47:47 15° NE visible
15 May ? 07:39:57 10° NNW 07:42:41 20° NW 07:42:41 20° NW visible
